Regional Weather Roundup
Issued by NWS

Home | Current Version | Previous Version | Graphics & Text | Print | Product List | Glossary On
Versions: 1 2 3 4 5 6 7 8 9 10 11 12 13 14 15 16 17 18 19 20 21 22 23 24 25 26 27 28 29 30 31 32 33 34 35 36 37 38 39 40 41 42 43 44 45 46 47 48 49 50
000
ASUS45 KTFX 250219
RWRMT
MONTANA HOURLY WEATHER ROUNDUP
NATIONAL WEATHER SERVICE GREAT FALLS MT
719 PM MST SAT JAN 24 2015

NOTE: "FAIR" INDICATES FEW OR NO CLOUDS BELOW 12000 FEET WITH NO
SIGNIFICANT WEATHER AND/OR OBSTRUCTIONS TO VISIBILITY.

* THESE STATIONS ARE NOT UNDER NWS QUALITY CONTROL. THEY DO NOT
   REPORT WEATHER SUCH AS PRECIPITATION OR FOG.

MTZ001>007-043-250300-
WEST OF THE DIVIDE
CITY           SKY/WX    TMP DP  RH WIND       PRES   REMARKS
KALISPELL      CLOUDY    39  36  89 S3        30.23S
MISSOULA       LGT RAIN  37  36  96 NW3       30.29S
BUTTE          CLOUDY    37  32  82 N3        30.27S
MULLAN PASS    FOG       36  36 100 SW6       30.26S VSB 1/2  WCI  31
* ANACONDA     MOCLDY    43  36  76 W10        N/A
* ESSEX        N/A       35  34  96 SE1        N/A
* EUREKA APT   PTCLDY    39  34  82 SE6       30.21S WCI  35
* HAMILTON APT PTCLDY    46  37  71 W1        30.28R
* LIBBY APT    PTCLDY    36  36 100 CALM      30.25F
* LINCOLN      N/A       43  34  71 S5G12      N/A
* LOOKOUT PASS N/A       38  38 100 NW1        N/A
* POLSON       N/A       40  39  96 N/A        N/A
* RONAN APT    CLOUDY    39  39 100 N/A        N/A
* SEELEY LAKE  N/A       35  33  92 E1         N/A
* THOMP F APT  PTCLDY    20  18  92 NW1        N/A
* YAAK HILL    N/A       38  35  89 SW1        N/A
$$

MTZ008-052>055-250300-
SOUTHWEST MONTANA
CITY           SKY/WX    TMP DP  RH WIND       PRES   REMARKS
BOZEMAN        CLOUDY    37  30  76 E5        30.26R WCI  33
DILLON         CLOUDY    43  34  71 S15       30.27R
* W YELLOWSTON PTCLDY    23  21  92 SW3G11     N/A
* THREE FORKS  CLOUDY    39  34  82 N/A        N/A
* BOULDER HILL N/A       42  26  53 N/A        N/A
* MONIDA PASS  N/A       19  19 100 SE19       N/A   WCI   3
* RAYNOLDS PAS N/A       22   6  50 SE22G29    N/A   WCI   6
* WHITEHALL    N/A       47  32  56 W3G9       N/A
* WISE RIVER   N/A       40  34  79 W4G9       N/A
$$

MTZ009>010-012-014-046-048-049-054-250300-
EAST SLOPES AND CENTRAL MONTANA
CITY           SKY/WX    TMP DP  RH WIND       PRES   REMARKS
CUT BANK       CLOUDY    39  30  70 W9        30.10S WCI  33
GREAT FALLS    CLOUDY    43  30  60 SW13      30.14R
HELENA         CLOUDY    46  36  68 W12       30.23R
MALMSTROM AFB  CLOUDY    41  32  70 SW12      30.15R
* CONRAD       CLOUDY    45  34  65 SW13       N/A
* DEARBORN     N/A       46  32  58 SW2        N/A
* EAST GLACIER N/A       43  30  60 SW20G30    N/A
* MONARCH      N/A       40  25  55 W16        N/A   WCI  32
* PENDROY      N/A       41  29  62 W9         N/A
* ROGERS PASS  N/A       40  33  76 SE12G23    N/A   WCI  33
* SWEET GRASS  N/A       41  29  62 W13        N/A
* WHITE SULPH  N/A       39  30  70 W2         N/A
$$

MTZ011-013-016-021-035-040-045-047-050-051-250300-
NORTH CENTRAL MONTANA
CITY           SKY/WX    TMP DP  RH WIND       PRES   REMARKS
HAVRE          PTCLDY    34  30  85 SW8       30.13R WCI  27
LEWISTOWN      CLEAR     36  30  79 SW7       30.13R WCI  30
* N BAR RANCH  CLEAR     37  30  76 NW13      30.12R WCI  29
* CHINOOK      CLEAR     36  30  79 W7        30.12R WCI  30
* CHESTER      N/A       40  30  68 NE1        N/A
* DENTON       N/A       39  32  76 W17        N/A   WCI  30
* GEYSER       N/A       37  30  76 W4         N/A
* JUDITH GAP   N/A       37  29  73 NW5        N/A   WCI  33
* LOMA         N/A       40  33  76 SW3        N/A
$$

MTZ017>020-022>027-061-062-250300-
NORTHEAST MONTANA
CITY           SKY/WX    TMP DP  RH WIND       PRES   REMARKS
GLASGOW        PTCLDY    37  30  76 W15       30.00R WCI  28
GLENDIVE       CLEAR     37  30  76 W21G28    29.96S WCI  26
JORDAN         CLEAR     37  28  70 NW12      30.05R WCI  29
SIDNEY         CLEAR     37  30  76 W15G22    29.94R WCI  28
WOLF POINT     CLEAR     39  30  70 W17G25    29.96R WCI  30
* BEAVER HILL  N/A       36  31  82 W12G18     N/A   WCI  28
* CIRCLE       N/A       39  33  79 W9G15      N/A   WCI  33
* LINDSAY DVD  N/A       36  31  82 W17G27     N/A   WCI  26
* NAVAJO       N/A       36  30  79 NW23G28    N/A   WCI  24
* PLENTYWOOD A CLEAR     37  30  76 NW29      29.85R WCI  25
* POPLAR APT   CLEAR     36  30  79 SW10      29.95R WCI  29
* SACO         N/A       35  30  82 W11        N/A   WCI  27
* SCOBEY APT   CLEAR     37  27  67 W23G32     N/A   WCI  26
$$

MTZ028>042-056>058-250300-
SOUTHCENTRAL AND SOUTHEAST MONTANA
CITY           SKY/WX    TMP DP  RH WIND       PRES   REMARKS
BAKER          CLEAR     37  30  76 NW21      29.95R WCI  26
BILLINGS       MOCLDY    43  32  65 W14       30.12F
LIVINGSTON     PTCLDY    46  30  54 SW22G31   30.19R
MILES CITY     PTCLDY    37  28  70 NW16      30.03R WCI  28
* BIG TIMBER A PTCLDY    46  30  54 SW21G30   30.16R
* FORSYTH APT  PTCLDY    37  30  76 W9        30.08R WCI  30
* LAUREL APT   PTCLDY    37  21  52 N/A        N/A
* ROUNDUP APT  PTCLDY    46  27  48 W6         N/A
* ALZADA       N/A       36  29  76 W14G19     N/A   WCI  27
* HYSHAM       N/A       42  23  47 W6         N/A
* LAME DEER    N/A       38  24  57 W13G22     N/A   WCI  30
* REED POINT   N/A       47  32  56 W12G22     N/A
* ROSCOE HILL  N/A       44  19  37 SW4G16     N/A
$$

REGIONAL REPORTS...DAKOTAS
CITY           SKY/WX    TMP DP  RH WIND       PRES   REMARKS
WILLISTON      MOCLDY    37  32  82 NW22      29.87R WCI  26
DICKINSON      CLOUDY    37  32  82 NW21      29.82R WCI  26
BEACH          CLEAR     36  32  85 NW15      29.93R WCI  27
CROSBY         CLOUDY    36  36 100 NW21G29   29.83R WCI  25
TIOGA          CLOUDY    36  36 100 NW18G23   29.83R WCI  26
WATFORD CITY   MOCLDY    37  32  82 NW13G21   29.85R WCI  29
BISMARCK       LGT SNOW  34  30  85 NW7       29.79R WCI  28
GRAND FORKS    CLOUDY    25  19  78 N10       29.78R WCI  15
FARGO          LGT SNOW  34  30  85 N17       29.72R VSB 2    WCI  23
BUFFALO SD     PTCLDY    39  30  70 NW31G39   29.85R WCI  27
RAPID CITY     PTCLDY    41  28  60 NW35G46   29.91R
$$

REGIONAL REPORTS...WYOMING/IDAHO/WASHINGTON
CITY           SKY/WX    TMP DP  RH WIND       PRES   REMARKS
GILLETTE       PTCLDY    34  30  85 W17       30.07R WCI  23
SHERIDAN       CLOUDY    39  30  70 NW15      30.12R WCI  31
CODY           MOCLDY    37  25  62 SE8       30.15S WCI  31
YELLOWSTONE LA CLOUDY    25  19  78 VRB5      30.36R WCI  19
SALMON         CLOUDY    30  25  82 CALM      30.39R
MULLAN PASS    FOG       36  36 100 SW6       30.26S VSB 1/2  WCI  31
SAND POINT     FOG       36  36 100 CALM      30.27F VSB 1/2
SPOKANE        FOG       37  37 100 CALM      30.26S VSB M1/4
$$

REGIONAL REPORTS...ALBERTA
CITY           SKY/WX    TMP DP  RH WIND       PRES   REMARKS
CALGARY        MOCLDY    43  18  37 S5        29.99F
LETHBRIDGE     MOCLDY    46  30  54 W21G29    30.05F
MEDICINE HAT   MOCLDY    37  28  70 S6        30.08S WCI  32
EDMONTON       MOCLDY    32  25  75 S6        29.92F WCI  26
WATERTON GATE  N/A       45  30  56 SW22G32    N/A
CARDSTON       N/A       45  30  56 NW6        N/A
MILK RIVER     N/A       39  32  76 W13        N/A   WCI  31
$$

REGIONAL REPORTS...SASKATCHEWAN
CITY           SKY/WX    TMP DP  RH WIND       PRES   REMARKS
SWIFT CURRENT  CLEAR     34  28  79 W16G24    29.96R WCI  24
REGINA         MOCLDY    36  32  85 NW21G26   29.82R WCI  25
VAL MARIE      N/A       34  30  85 W12        N/A   WCI  25
ASSINIBOIA     N/A       36  30  79 W22G30     N/A   WCI  25
CORONACH       N/A       36  30  79 W22        N/A   WCI  25

$$



USA.gov is the U.S. government's official web portal to all federal, state and local government web resources and services.